FENGYUN 3D

Last updated on Sun Jan 18 2026 00:02:21 GMT+0000 (Coordinated Universal Time)

1 43010U 17072A 26017.61121112 .00000213 00000+0 12257-3 0 9991 2 43010 98.9934 349.4672 0002374 103.9362 256.2078 14.19696413423628
UTC large
Height (km)
Speed (km/s)
/
Latitude / Longitude
Inclination (degrees)
Orbital Period (minutes)
Azimuth
Elevation
Range (km)
Doppler Factor

Next 0 passes for location: London (51.5072 / 0.1276)

Sorry there are no passes over London.